Theta_e
319 321 327 332 330 329 331 331 328 328 329 329 329 328 331 334 336 332 333 333 333 333 336 336 330 328 323 326 310 314 325 324 323 325 327 322 321 323 326 325 324 326 325 323 326 321 317 325 325
318 319 330 333 331 331 328 327 328 329 329 329 329 330 331 333 333 332 333 333 333 331 332 336 332 327 325 327 310 314 323 325 327 328 326 321 321 326 325 323 326 326 327 321 322 320 316 323 322
318 326 329 329 328 332 330 327 329 330 330 330 330 332 335 333 332 332 332 332 332 329 331 336 334 329 328 329 312 310 322 329 329 326 326 325 322 324 325 323 326 326 324 319 320 320 319 321 323
325 327 328 328 331 328 328 326 327 332 332 332 331 332 334 333 331 331 331 331 331 330 331 334 335 332 332 330 314 310 325 326 316 324 323 325 324 323 321 319 326 328 321 319 319 319 321 323 325
325 326 325 326 327 325 324 324 327 327 331 332 333 332 332 330 331 330 331 331 329 330 331 332 335 333 333 332 314 311 326 327 327 318 324 326 325 322 316 323 328 326 321 319 319 318 319 321 323
324 322 321 326 323 323 323 325 327 326 326 332 333 333 332 330 330 331 331 330 327 329 334 331 334 333 333 332 313 315 328 325 321 317 319 324 323 319 322 323 325 325 322 320 319 318 318 320 323
322 320 321 320 320 319 320 323 325 326 325 329 333 331 331 329 328 331 329 327 327 330 331 331 331 332 333 331 313 323 329 322 316 312 313 318 317 317 319 321 325 324 323 321 320 317 317 318 322
323 317 322 320 319 318 317 323 326 326 326 330 334 332 331 328 329 329 327 327 327 328 329 331 328 332 333 328 315 324 326 325 314 312 322 319 323 317 319 322 325 324 323 321 320 317 317 319 320
323 319 320 321 321 321 321 321 325 325 325 325 334 333 333 329 327 326 328 328 329 329 329 328 327 333 333 326 316 326 327 325 314 313 316 322 320 316 320 323 323 321 322 321 319 317 315 319 322
320 319 322 321 319 319 320 320 322 323 323 323 332 332 332 328 327 326 329 332 332 332 332 327 329 334 333 323 315 326 327 326 320 313 311 319 316 316 322 325 321 319 321 321 320 318 317 318 318
318 319 320 320 319 319 320 320 320 320 321 325 332 332 331 329 329 328 330 332 335 333 330 327 333 333 333 321 316 326 327 326 326 315 312 315 315 319 323 322 321 318 320 321 320 319 317 316 318
316 317 320 320 319 320 321 321 319 319 319 324 328 332 332 330 330 330 329 328 330 332 333 327 335 332 332 320 316 326 327 326 325 322 315 317 318 321 322 324 322 319 318 319 320 319 318 316 316
313 313 314 314 318 322 322 322 321 321 320 320 328 331 330 331 331 332 331 332 333 334 333 333 333 332 332 323 316 325 327 325 326 320 320 320 322 321 319 321 323 320 317 315 314 314 317 318 317
309 309 310 311 312 317 321 321 320 321 320 320 320 324 330 330 331 331 332 330 333 333 334 333 333 332 331 327 323 322 326 325 326 324 320 322 322 323 320 319 320 320 319 318 315 315 315 318 318
308 307 307 307 309 315 319 319 319 319 320 320 321 320 322 324 330 331 331 331 330 331 333 333 333 333 330 329 329 326 325 325 326 325 320 320 321 319 322 322 320 320 321 321 319 316 313 314 313
306 306 307 308 306 307 316 317 314 316 317 319 319 319 319 323 325 328 331 331 331 331 331 333 333 333 330 330 329 328 327 326 326 326 325 320 318 319 322 322 321 319 318 319 318 313 314 313 313
306 305 307 308 308 308 312 314 313 314 314 313 315 316 318 320 325 326 328 331 331 331 331 331 332 332 330 329 329 328 327 326 325 327 326 323 317 322 322 322 322 320 319 320 316 314 314 313 313
310 309 308 306 306 307 306 305 306 308 308 309 310 311 315 319 323 324 324 325 330 331 331 331 331 331 330 329 328 327 327 327 326 326 325 322 317 322 322 322 322 323 322 322 317 314 314 313 311
307 308 308 308 308 307 308 305 306 307 307 307 308 309 311 313 315 320 324 324 325 330 331 331 331 330 330 329 327 326 326 326 326 325 323 322 318 320 323 322 322 322 322 322 319 316 313 312 311
308 308 308 309 309 309 307 307 307 307 308 308 308 308 309 313 314 316 320 325 327 326 324 329 330 330 329 329 327 326 326 325 324 324 323 321 320 319 323 323 322 322 322 323 321 317 314 314 312
308 309 309 309 308 307 307 306 307 308 308 308 308 308 308 309 314 316 316 323 326 327 327 325 327 329 329 329 329 327 326 325 324 324 323 321 321 317 318 321 323 323 322 324 321 318 317 314 314
310 308 308 309 307 308 306 306 306 306 307 307 308 308 308 309 309 313 312 313 327 326 326 326 325 327 329 329 328 328 327 326 326 324 322 320 319 318 316 318 319 322 323 323 321 319 319 318 315
309 308 308 308 310 308 307 303 305 306 306 306 306 306 307 307 308 308 309 309 311 319 324 326 325 326 327 329 329 328 327 327 326 326 326 322 320 320 319 317 317 318 324 324 324 320 319 319 319
308 309 307 309 309 302 306 306 306 306 306 307 307 307 307 308 309 308 308 308 308 311 314 322 326 326 327 328 328 328 327 327 326 326 326 325 323 321 320 320 320 320 317 320 324 323 320 320 320
308 307 297 302 305 299 307 306 305 307 306 305 304 304 305 306 308 309 309 310 308 309 314 317 323 325 325 326 328 328 327 327 328 327 326 325 324 324 322 321 321 321 319 318 317 323 320 319 320
310 309 307 308 306 306 306 307 308 306 304 303 303 303 303 305 305 307 309 309 310 310 310 320 323 324 325 326 327 328 328 328 328 328 327 325 324 325 324 322 321 320 320 319 318 317 318 318 318
307 305 309 303 299 304 306 305 306 305 304 303 302 301 302 303 304 304 305 308 310 312 312 313 322 324 323 322 324 327 328 328 328 328 327 327 325 325 325 323 323 323 322 321 319 319 317 317 316
308 307 309 302 300 303 304 305 306 304 304 301 300 299 300 300 302 303 304 306 308 310 312 312 314 324 322 321 321 326 327 327 327 327 327 327 327 327 325 324 325 325 325 324 322 320 319 319 318
309 308 308 308 307 307 301 303 305 304 302 301 299 299 298 298 299 299 301 304 306 308 309 317 315 324 326 323 323 326 326 326 327 327 327 327 328 327 327 326 326 325 326 326 324 323 321 320 319
307 310 310 308 307 305 306 303 303 301 300 300 299 298 297 296 296 297 299 300 302 306 309 319 322 324 323 323 323 324 327 327 327 327 324 324 324 327 327 328 327 327 326 325 325 326 324 323 321
Wind_Speed
9 6 4 4 3 3 3 7 3 6 3 3 6 8 9 6 3 3 21 21 22 28 28 24 20 18 18 14 13 19 20 19 17 17 18 15 16 18 20 15 17 18 16 16 18 17 21 21 21
7 5 2 2 4 1 5 6 12 4 7 9 7 7 4 3 5 16 26 17 21 29 29 25 21 20 19 15 13 18 20 19 19 18 15 13 17 21 17 17 19 17 16 18 19 19 21 21 19
5 2 2 4 4 5 5 2 6 4 4 6 5 8 4 3 8 30 15 24 23 31 29 26 22 20 18 15 13 15 20 19 18 20 16 15 15 20 17 16 18 17 14 18 20 21 22 21 19
2 3 4 2 6 7 12 5 4 4 1 2 10 8 8 4 19 16 25 25 22 31 29 26 23 20 18 15 13 15 21 18 15 16 20 17 15 16 14 15 18 17 15 18 19 20 21 20 19
2 4 2 3 7 8 9 11 5 4 2 5 6 7 7 9 8 18 27 24 24 33 29 27 24 21 19 16 13 16 21 19 18 15 20 17 16 13 15 19 17 16 17 18 18 19 19 18 18
3 4 1 7 5 9 10 21 11 3 3 1 6 9 4 7 10 29 26 23 23 30 27 26 25 21 18 16 13 16 21 17 14 16 19 17 14 12 20 18 17 16 16 17 16 17 17 17 16
4 2 5 3 6 6 9 22 10 7 4 1 4 4 10 11 22 28 26 22 20 26 25 27 25 22 18 16 15 18 21 14 11 14 17 15 14 16 18 17 17 15 15 15 15 15 16 16 18
5 3 2 4 7 9 7 7 7 8 4 6 4 5 7 19 26 25 25 24 22 23 24 28 26 24 21 18 16 20 18 14 13 15 15 16 17 16 18 17 16 14 14 13 12 14 15 16 16
6 2 3 5 5 7 15 4 3 4 2 3 3 3 9 26 30 29 28 27 26 25 22 27 27 25 22 19 19 20 17 14 13 13 16 17 16 17 17 16 16 15 14 13 13 15 16 14 15
4 4 5 5 4 4 11 11 2 5 5 6 12 10 19 28 31 32 33 29 28 26 23 30 29 28 25 22 22 22 21 17 13 12 14 17 17 18 18 17 14 15 15 13 13 15 16 15 14
3 4 7 15 8 15 13 9 11 5 4 4 9 16 25 26 30 32 34 30 22 19 21 29 29 28 26 24 25 24 23 18 14 12 15 18 18 18 17 17 14 13 14 14 14 14 15 15 13
4 7 14 17 22 8 4 13 10 5 5 8 7 10 20 27 26 28 30 32 29 25 25 26 29 28 26 24 27 26 24 22 17 15 17 17 17 17 16 17 15 13 14 14 14 13 12 14 13
3 8 13 16 12 6 4 8 5 14 11 3 6 12 12 19 23 22 19 29 28 30 29 29 29 28 27 24 27 26 23 22 20 17 19 18 17 15 13 16 15 15 14 14 15 13 14 12 12
7 11 14 11 14 9 4 6 5 5 9 13 10 11 12 12 22 22 21 25 33 29 30 29 30 29 26 24 23 28 25 25 23 19 23 20 18 17 15 15 17 17 13 13 12 11 13 14 13
8 6 8 9 7 4 5 6 5 19 19 20 26 19 19 16 17 27 25 24 27 32 30 31 31 32 28 25 25 26 27 27 25 23 23 23 22 19 17 15 15 17 17 15 14 14 13 14 13
2 1 4 5 5 8 8 8 6 19 19 26 30 30 25 24 22 22 27 24 26 27 36 32 33 31 32 31 28 25 27 28 29 27 23 25 23 22 19 16 15 17 18 18 16 14 13 12 12
4 2 3 6 5 2 5 3 12 17 18 24 28 30 32 24 26 23 25 29 30 30 30 38 35 34 34 34 32 27 26 25 31 30 26 24 25 24 22 20 20 19 20 19 17 15 14 13 14
4 4 5 5 7 9 7 7 9 24 16 16 20 18 24 31 28 26 27 26 32 33 32 31 38 36 33 33 31 31 27 26 28 30 29 26 28 26 25 24 24 25 22 21 19 17 17 15 14
4 4 8 10 12 7 4 7 9 21 21 19 25 22 19 16 11 20 33 31 31 35 35 34 37 38 40 37 34 35 38 35 34 33 31 29 28 30 29 28 26 26 26 23 21 19 19 19 18
2 3 6 9 7 8 8 14 16 16 22 24 18 24 19 17 21 16 17 32 33 33 30 33 35 37 40 42 39 38 37 37 35 33 33 32 30 33 31 32 31 28 26 27 26 24 24 23 21
4 4 3 5 8 4 9 6 3 5 19 26 27 21 22 20 17 23 14 24 35 34 34 31 32 35 37 38 44 40 36 34 35 36 34 33 33 33 37 35 33 32 30 30 30 28 28 26 25
5 6 6 7 7 3 6 4 8 9 6 2 15 18 24 28 27 25 22 12 31 32 31 29 30 34 37 35 40 48 44 41 41 39 37 34 35 35 37 40 37 35 34 34 32 31 31 29 29
2 3 3 4 5 5 2 4 7 5 9 9 14 18 23 17 19 24 24 27 24 24 30 31 32 33 37 40 41 46 51 32 42 41 40 37 36 37 37 39 40 38 38 37 35 35 34 34 32
6 5 5 1 2 2 3 4 5 3 5 5 18 24 27 27 24 15 13 17 16 19 25 31 33 35 37 38 42 44 41 36 38 44 41 42 40 39 40 39 41 41 40 40 40 38 37 37 36
4 3 3 4 3 5 2 3 6 6 9 11 14 27 33 28 26 25 23 22 17 15 16 31 35 36 35 39 40 43 42 38 36 36 42 42 43 42 42 43 45 46 44 42 41 41 42 42 40
4 2 1 3 2 4 6 4 3 3 9 16 20 23 30 29 28 26 24 25 25 24 18 16 38 36 35 36 39 43 44 40 40 38 40 44 44 44 40 41 45 47 47 45 45 44 44 46 46
3 2 3 0 1 2 3 5 4 16 18 28 29 26 27 28 30 29 28 25 27 25 24 20 26 42 38 35 36 41 42 43 40 34 38 39 41 41 38 37 40 45 47 47 48 49 49 49 49
2 4 1 2 3 4 4 4 5 19 19 20 22 23 24 27 25 25 26 26 28 27 28 27 25 38 42 37 35 40 39 40 38 33 35 38 36 34 39 35 37 39 43 45 47 50 52 53 53
1 1 2 2 2 2 2 4 5 9 12 15 23 28 24 25 25 24 23 25 25 28 29 19 25 30 36 34 33 38 37 35 35 35 28 30 38 38 43 41 37 38 40 41 44 47 51 52 53
3 4 2 2 3 3 2 3 3 10 13 16 20 23 22 25 23 22 18 16 14 11 8 10 17 23 26 28 28 30 32 32 33 32 29 22 23 38 39 38 39 43 41 43 43 44 48 50 52
Wind_Direction
289 303 330 338 39 74 258 261 263 279 64 97 69 72 113 63 82 177 140 175 171 168 171 166 162 161 155 138 137 136 130 125 121 120 114 100 106 114 105 110 108 104 105 98 100 105 122 116 113
274 292 270 242 114 306 270 260 278 252 134 100 80 60 84 104 113 141 157 187 177 173 170 167 164 160 152 140 137 139 134 130 126 117 121 104 108 114 121 112 115 114 107 104 103 103 114 119 116
255 248 296 153 175 194 239 43 25 8 86 120 103 76 81 93 130 152 183 176 179 174 169 167 165 155 152 145 141 146 139 136 130 128 134 124 111 122 123 130 123 121 111 107 106 106 112 120 122
178 201 253 141 226 241 237 290 351 96 316 49 114 85 93 127 150 166 180 179 177 176 171 170 166 158 154 154 148 150 141 137 132 136 136 137 128 135 138 135 127 128 117 106 109 111 117 123 120
227 258 209 204 238 261 260 258 170 320 293 209 138 152 104 124 160 161 171 181 175 176 172 171 169 166 163 161 156 153 145 150 144 142 137 143 149 139 134 135 134 137 118 110 110 116 122 126 123
260 213 177 220 248 247 270 266 196 207 341 145 141 115 118 173 177 164 173 178 180 171 172 174 173 170 167 165 162 153 148 152 150 145 146 150 151 147 144 143 140 136 126 118 113 115 124 130 129
199 89 219 212 225 269 249 291 181 174 25 256 298 71 136 163 154 159 166 176 177 174 174 178 176 174 171 170 164 154 161 156 146 146 146 151 142 137 145 147 146 139 135 126 117 115 129 133 133
222 132 215 223 234 268 271 289 145 108 118 14 51 149 158 163 155 160 165 178 181 183 182 181 177 174 173 174 169 160 163 158 150 150 147 146 146 147 147 149 153 144 139 132 123 121 130 140 140
228 142 221 218 228 257 321 290 99 131 143 49 51 136 158 156 164 165 172 176 181 185 193 188 178 180 178 179 173 167 167 168 155 152 156 154 156 155 153 156 158 153 148 141 132 127 128 142 147
184 180 220 255 257 303 319 14 325 121 80 37 81 114 149 166 171 174 177 175 182 186 193 192 179 183 183 184 180 174 174 177 167 164 164 164 167 164 162 166 168 163 157 154 147 142 140 148 154
280 190 229 272 309 330 328 332 346 75 93 124 132 154 163 176 183 184 184 184 187 190 190 187 184 189 191 190 184 184 182 186 184 174 169 173 174 170 176 176 178 171 163 166 162 161 162 158 161
277 305 268 273 291 298 299 321 333 26 45 132 133 160 174 184 194 194 199 193 192 199 201 192 190 194 199 196 190 190 187 191 192 187 181 177 182 181 186 189 186 172 167 172 177 183 178 172 167
9 346 341 331 344 347 292 301 308 312 304 340 129 178 190 194 206 209 205 187 192 196 201 197 199 200 205 198 197 195 192 196 197 190 187 189 197 197 199 195 188 180 173 180 187 195 184 184 184
324 324 308 317 317 315 327 293 314 266 289 282 282 228 208 208 204 214 211 203 196 197 202 203 203 205 205 207 203 201 195 201 202 196 193 198 207 212 204 198 197 195 185 188 193 200 202 195 198
322 326 330 284 266 263 357 284 244 266 273 271 273 272 243 232 210 213 218 213 202 203 206 203 206 199 203 209 211 210 201 207 208 205 205 207 212 212 201 196 193 202 182 186 198 208 201 204 205
279 312 329 294 220 235 187 247 289 263 262 259 261 268 262 238 218 216 215 215 215 208 208 206 201 200 204 205 208 212 210 213 211 208 212 214 208 208 203 204 201 202 202 192 200 203 210 213 215
11 313 249 314 70 353 165 259 266 259 263 252 258 261 258 247 220 220 215 219 219 218 208 212 209 206 209 213 218 217 215 216 213 214 222 219 210 205 210 208 200 197 196 196 207 211 218 224 219
349 337 338 304 4 359 321 275 290 294 294 286 286 277 257 243 228 229 231 221 216 220 217 212 215 214 207 213 215 213 214 218 217 223 229 223 212 206 206 208 204 202 208 203 215 212 217 224 228
22 333 314 305 302 335 319 275 278 291 298 289 280 282 288 266 265 247 239 228 215 215 220 214 212 215 218 211 210 213 215 216 221 227 230 228 217 207 209 210 212 210 217 218 221 215 217 218 219
330 325 306 295 345 333 303 283 266 261 265 269 275 282 286 301 278 282 255 236 218 213 220 221 217 218 217 220 214 214 219 221 226 230 232 230 223 212 209 215 216 219 221 221 224 222 219 221 225
347 322 337 316 330 302 348 305 355 279 249 255 263 270 275 278 282 269 287 249 226 218 220 226 226 223 218 218 221 220 221 226 227 230 233 231 229 218 218 219 220 222 226 228 225 223 227 229 228
313 13 9 346 2 305 54 291 333 326 345 276 267 266 266 264 265 266 277 284 237 232 231 233 236 231 223 220 225 223 225 224 230 232 235 235 233 226 221 225 228 226 227 230 232 228 231 235 236
325 334 286 292 286 339 301 66 274 310 17 7 23 24 25 353 329 288 276 276 260 250 246 242 240 239 233 227 223 223 224 234 236 238 241 238 235 234 229 227 230 230 228 232 237 233 232 237 239
333 316 330 261 84 356 246 129 283 29 13 12 5 4 2 1 349 343 345 299 304 263 251 244 245 242 238 233 227 222 221 226 236 236 239 240 238 235 234 234 234 236 237 236 238 241 241 242 243
29 15 356 2 0 212 82 100 263 51 34 29 4 353 346 343 345 339 326 322 303 310 288 250 240 244 243 239 234 228 226 229 232 239 238 240 239 238 237 235 236 240 241 243 243 241 247 247 245
333 356 105 306 334 278 319 227 160 23 32 26 10 354 348 334 330 332 321 312 306 298 289 274 251 239 243 245 240 238 233 231 232 236 240 239 243 242 246 241 241 244 246 245 247 247 248 251 253
313 334 339 210 349 11 266 293 207 -0 1 359 358 353 339 337 329 325 315 307 303 296 287 275 249 244 239 247 246 239 238 235 237 237 238 242 243 245 257 252 248 249 250 250 247 248 252 252 255
341 338 311 22 28 318 307 318 320 351 339 334 339 339 336 332 327 325 320 311 301 300 289 279 272 237 241 245 246 241 238 238 238 239 235 240 246 247 253 256 254 253 254 253 251 250 253 253 256
341 343 256 264 189 199 297 290 11 328 337 334 338 337 334 339 337 332 317 308 301 297 292 281 264 233 234 240 242 242 243 247 237 239 237 243 245 251 251 250 258 258 258 258 255 254 254 253 257
310 23 302 232 299 218 179 270 343 351 342 345 343 345 349 0 356 0 354 332 327 314 295 255 236 222 224 230 236 246 249 250 246 238 247 256 257 256 241 261 264 265 262 262 259 260 258 255 256